COSMOS 2533

Last updated on Thu Sep 10 2026 00:02:59 GMT+0000 (Coordinated Universal Time)

1 43867U 18107A 26252.59944169 -.00000060 00000+0 00000+0 0 9994 2 43867 0.0149 134.9070 0000479 80.4160 59.1155 1.00272928 28295
UTC large
Height (km)
Speed (km/s)
/
Latitude / Longitude
Inclination (degrees)
Orbital Period (minutes)
Azimuth
Elevation
Range (km)
Doppler Factor

Next 0 passes for location: London (51.5072 / 0.1276)

No passes found over London.
COSMOS 2533